RH
59 62 69 61 55 55 51 45 46 49 48 46 42 37 36 36 35 33 36 39 34 28 31 31 26 27 29 26 24 25 25 25 29 34 36 36 33 31 30 28 27 26 24 23 22 23 24 24 22 22 23 26 26 27 29 29 30 33 34 34 35 37 38 37 37 37 35 34 31 28 27 27 27 29 29 30 30 30 30 31 32 34 33 33 33
62 62 64 59 55 52 46 45 48 49 48 45 38 35 37 38 38 35 35 39 36 32 33 32 29 29 27 23 22 24 25 26 27 28 29 32 33 35 35 34 33 33 32 30 29 30 31 33 33 32 32 32 33 34 34 34 34 36 38 38 38 39 39 39 39 38 36 35 32 30 31 31 31 32 32 32 32 33 34 35 36 35 34 34 35
62 61 59 55 52 50 47 48 50 50 48 43 37 35 39 42 40 37 36 38 39 36 33 29 28 31 29 26 25 26 29 33 32 32 34 37 39 39 40 39 39 40 38 36 36 36 37 37 37 37 37 38 38 38 38 38 37 38 39 39 40 41 41 42 43 43 40 37 35 34 34 36 38 38 37 37 37 38 39 40 40 38 37 36 36
61 60 55 51 51 52 53 53 52 51 48 42 38 39 43 44 41 37 36 37 39 40 36 29 28 33 33 31 32 32 34 37 36 37 40 42 43 43 41 39 38 38 36 35 35 36 37 37 37 39 40 41 41 41 40 39 38 39 42 43 43 42 43 44 45 45 43 41 39 38 40 42 43 43 42 42 41 42 43 42 41 39 38 37 35
59 57 54 52 54 57 58 56 54 52 47 42 40 41 44 44 39 35 36 38 42 47 43 34 31 34 36 36 38 38 38 38 37 38 42 44 45 44 41 37 36 35 34 35 35 36 37 37 36 38 40 42 44 45 45 44 43 43 44 46 46 45 45 46 46 46 45 44 44 45 45 47 47 46 46 44 44 43 42 40 38 35 34 33 31
58 57 57 59 60 60 59 56 55 54 50 47 46 45 46 44 36 33 36 41 46 50 46 38 34 34 36 38 41 41 39 40 40 39 41 43 44 43 42 40 40 39 39 39 39 39 39 39 39 39 41 44 46 48 49 49 50 49 49 49 49 48 48 48 48 49 48 47 47 48 48 48 48 47 46 44 42 40 39 38 35 33 31 29 29
60 62 62 62 63 63 59 57 56 55 53 52 52 51 51 48 39 35 40 44 47 48 46 41 37 34 35 37 40 42 40 41 42 43 43 43 43 43 44 44 43 45 47 48 47 46 45 46 46 46 47 47 49 51 52 53 53 54 54 54 52 52 53 53 52 51 52 51 49 48 47 47 47 46 45 42 38 36 34 33 32 30 29 28 27
58 64 65 62 64 64 61 58 57 55 53 53 53 52 52 51 45 40 42 44 45 46 44 41 38 35 34 34 37 39 38 38 40 41 41 42 42 44 45 46 46 47 49 53 55 55 56 57 57 56 56 56 56 57 58 58 59 59 60 60 58 57 57 58 57 56 55 53 51 48 46 45 45 45 44 40 36 34 32 30 29 29 28 28 28
58 66 67 64 67 68 64 63 59 55 53 50 48 47 48 49 48 43 42 41 41 42 42 39 37 34 32 31 33 35 37 38 39 39 40 41 43 44 45 47 47 48 49 53 56 60 62 63 63 64 64 64 64 64 64 64 65 65 66 66 66 66 66 66 65 62 60 56 53 52 49 47 45 44 42 40 37 36 35 34 33 33 32 32 32
64 68 67 66 70 70 68 65 60 56 53 50 48 47 46 47 47 44 43 43 41 40 40 41 40 39 36 32 31 33 35 37 39 40 41 41 42 43 43 44 46 47 48 51 55 60 63 65 66 66 66 67 67 68 69 69 68 70 71 72 74 74 74 74 74 71 66 60 57 55 53 50 46 43 41 41 39 38 38 37 35 34 32 32 31
66 67 70 73 73 70 67 64 60 57 56 55 54 53 51 50 48 46 44 44 44 42 42 43 43 44 43 41 38 37 38 40 41 42 42 43 43 42 41 40 42 43 45 47 50 54 57 60 61 63 65 68 69 71 73 72 69 69 70 73 78 79 74 72 74 74 69 64 60 59 58 53 48 45 43 41 39 38 36 35 33 32 31 30 29
61 62 67 72 71 66 62 60 60 59 59 58 58 56 54 52 49 47 44 43 43 42 43 45 46 48 49 48 47 45 44 45 45 45 45 45 46 46 45 45 45 44 45 46 48 49 51 52 54 57 61 66 69 70 72 71 70 70 71 72 76 79 75 70 68 68 68 65 64 64 62 57 51 48 45 42 39 36 34 32 32 32 32 31 30
54 55 56 58 58 57 55 55 57 57 56 56 56 53 52 50 49 47 47 46 44 43 43 44 47 50 52 53 52 52 51 50 48 47 46 46 48 51 53 55 57 57 54 52 52 51 51 52 52 52 55 58 60 61 60 61 63 66 69 71 73 76 78 76 71 69 69 69 68 67 62 56 50 45 42 40 38 36 35 34 34 33 33 32 31
53 52 51 52 52 52 51 50 51 52 50 50 49 48 48 49 48 48 48 49 48 46 46 45 47 51 52 52 53 53 54 54 52 49 48 46 46 49 52 56 61 64 64 63 61 59 59 58 56 55 54 53 54 55 55 56 59 62 64 66 68 74 79 79 76 74 72 71 69 64 57 52 46 41 38 38 37 37 37 36 35 34 33 32 31
56 56 56 55 56 55 54 53 53 53 51 49 47 48 50 51 51 50 50 51 50 48 47 47 49 52 53 53 51 50 52 53 53 53 51 49 47 47 48 51 56 59 62 68 71 71 72 71 67 64 61 59 60 61 61 62 64 67 68 66 67 72 75 74 72 71 69 69 66 60 54 50 46 42 41 40 39 38 38 36 36 35 34 32 30
63 63 61 60 60 59 58 57 57 57 56 55 53 53 53 53 54 54 53 53 54 53 51 51 52 54 56 57 55 53 53 54 55 55 54 53 51 49 47 47 49 51 54 60 64 68 73 76 73 68 62 61 66 68 68 70 69 67 68 69 70 72 71 67 65 63 62 63 61 57 53 49 46 45 44 42 40 39 38 37 37 36 33 31 27
66 65 65 62 60 58 55 56 56 57 57 58 58 57 57 57 57 57 57 57 56 57 58 56 56 56 56 57 55 52 53 54 56 55 55 54 53 50 46 44 45 47 49 52 54 56 61 66 66 62 59 62 67 70 72 74 71 66 66 67 68 68 64 59 58 57 56 58 56 52 49 47 45 44 44 43 41 40 38 37 36 34 31 28 26
68 68 67 64 60 57 55 56 56 57 58 58 59 60 60 61 61 59 59 59 58 59 60 60 58 58 56 56 52 49 49 52 54 55 55 55 53 51 49 49 47 47 50 53 54 54 57 61 61 60 61 63 69 74 78 81 76 69 64 61 58 56 53 51 53 53 53 54 53 50 47 45 44 45 45 44 42 40 38 37 35 32 30 29 28
72 71 68 65 62 60 59 59 58 60 61 62 63 65 65 64 63 62 61 61 61 62 62 61 61 61 60 58 54 50 49 50 53 55 55 55 54 51 50 50 49 50 54 59 60 58 59 62 62 60 61 65 70 76 79 80 77 68 58 51 49 48 48 48 50 50 51 54 53 49 45 44 45 46 46 44 41 40 38 36 33 32 32 33 33
70 69 68 67 67 66 66 65 64 64 65 64 65 66 66 66 64 62 60 58 56 56 55 54 54 55 55 54 51 49 49 49 51 52 52 53 52 51 50 50 49 51 55 59 61 60 60 61 62 61 62 66 71 77 81 82 76 64 53 47 46 48 48 48 48 50 53 56 55 51 46 45 45 46 45 43 42 40 38 36 35 36 37 37 37
70 69 69 69 69 69 69 69 68 67 66 64 63 63 63 61 58 55 52 49 47 46 45 44 44 45 47 48 48 47 49 50 50 50 50 49 49 50 51 52 52 54 56 56 59 61 60 61 65 66 64 64 69 79 87 85 72 58 50 49 50 51 51 51 51 53 59 62 59 54 50 47 47 47 45 43 43 42 41 40 41 40 39 38 36
71 69 68 67 66 66 66 65 64 63 62 61 60 59 57 56 55 53 52 51 49 48 47 47 45 44 45 47 48 48 48 49 49 48 48 47 46 47 49 50 52 54 52 51 55 58 58 58 61 62 62 64 72 83 85 76 66 61 57 55 55 56 57 58 57 59 66 70 65 57 52 51 51 51 49 47 47 46 44 44 43 41 39 37 34
69 67 66 65 63 62 61 60 60 59 58 57 55 55 54 53 53 54 54 53 54 53 52 51 50 49 48 49 50 49 50 51 51 49 47 45 46 47 49 50 51 50 48 50 53 54 53 53 53 55 59 62 65 69 71 69 70 71 67 62 62 63 63 66 69 70 73 72 64 56 55 55 56 55 52 50 49 48 46 45 43 40 37 33 30
69 68 66 64 62 60 59 57 57 56 56 56 54 53 52 51 49 49 48 48 49 49 48 48 47 46 46 46 47 46 46 48 50 50 48 45 45 46 48 48 48 48 50 53 53 52 52 51 50 55 61 62 61 62 66 70 74 74 70 69 71 69 65 68 74 76 74 68 61 58 57 57 58 57 54 52 50 48 45 43 39 35 31 29 28
67 65 64 63 60 58 55 53 53 52 52 52 51 50 48 47 46 45 44 43 43 43 43 43 43 42 41 41 41 41 41 43 46 48 48 45 44 44 45 46 48 51 55 56 54 53 53 52 53 58 61 61 63 66 68 69 71 74 76 77 75 71 68 67 68 71 71 67 62 61 61 60 60 59 56 53 50 46 42 37 34 31 29 28 28
57 56 56 54 52 50 48 47 47 47 47 47 47 47 46 45 43 43 42 41 40 39 39 38 37 38 37 37 38 39 37 39 44 48 49 49 49 48 48 50 54 57 60 60 58 57 55 54 54 59 62 62 61 63 65 67 68 71 75 75 71 67 66 67 67 69 71 69 66 66 64 62 61 58 55 52 47 41 37 34 32 31 28 27 26
48 48 48 46 44 44 44 44 44 44 43 43 43 42 41 41 40 40 39 39 38 37 36 35 34 34 34 33 35 37 37 39 43 48 49 53 58 59 57 59 62 62 62 62 61 58 56 53 51 54 61 64 60 56 57 62 67 71 72 69 67 66 68 72 75 75 75 74 72 69 66 61 58 54 50 46 41 37 35 35 33 31 28 26 26
46 45 43 42 42 44 45 45 44 43 41 40 40 40 39 39 39 39 38 39 38 37 36 35 34 34 33 32 33 36 37 40 43 46 47 49 53 54 55 59 64 65 65 64 63 60 57 53 50 51 58 61 57 50 49 55 60 65 67 67 69 73 76 79 80 80 78 76 73 68 63 57 52 48 45 41 37 37 37 36 32 29 27 26 25
44 44 43 43 44 45 45 45 44 42 40 39 38 38 37 37 37 37 37 36 36 35 34 33 32 32 31 30 29 30 31 32 36 43 50 58 62 60 57 58 61 63 65 65 63 60 56 52 52 54 58 60 57 53 55 58 60 63 68 73 78 81 81 81 81 81 79 76 72 66 59 53 48 45 42 39 37 38 36 32 28 26 26 24 23
43 43 43 43 44 43 42 41 41 40 38 36 34 32 32 32 32 33 32 31 31 32 31 30 30 30 29 29 28 27 26 26 25 30 40 53 63 64 61 58 57 59 63 65 63 59 53 49 50 55 60 63 63 63 68 73 72 72 77 81 82 82 81 81 82 81 79 77 72 64 56 50 47 44 41 39 38 37 33 28 27 26 26 24 23
40 39 40 41 41 40 39 38 38 37 37 36 35 33 33 33 33 33 33 32 31 30 30 31 31 32 31 31 30 29 29 28 26 25 27 36 50 61 66 67 64 61 60 57 56 54 48 44 48 55 62 68 71 74 79 83 83 82 83 82 83 83 83 83 83 82 80 77 69 60 53 49 46 43 41 40 38 34 29 28 29 28 25 24 27
38 38 39 40 40 39 39 38 38 39 38 38 38 38 37 36 35 36 36 34 31 30 31 32 32 32 33 33 32 35 37 35 32 28 26 27 37 50 61 67 69 67 62 58 57 53 46 44 52 62 70 77 81 81 82 82 82 82 81 80 82 85 85 83 82 80 78 72 63 56 53 49 46 45 43 40 35 31 30 31 31 28 26 28 32
40 40 40 41 41 41 41 41 41 41 41 40 40 39 38 37 37 37 38 37 35 34 34 35 35 34 34 34 35 38 42 42 39 35 32 29 29 33 42 49 52 54 57 59 60 59 53 54 62 69 73 76 79 79 81 81 80 80 80 80 82 82 80 79 79 78 73 67 60 55 52 50 48 46 41 36 33 33 34 34 31 29 29 31 34
42 41 41 42 42 42 42 42 42 42 41 41 41 40 40 41 41 41 41 41 39 38 38 39 38 38 38 38 38 40 45 47 45 41 40 38 33 30 33 37 41 47 56 63 71 77 78 77 78 78 76 74 72 74 79 83 83 82 82 81 79 77 76 78 77 74 69 63 58 54 52 50 48 43 37 34 35 37 37 34 31 30 31 31 34
45 44 43 43 43 42 42 42 41 41 41 43 44 44 44 44 44 43 42 42 42 40 39 38 38 38 39 38 37 40 46 51 51 48 48 47 42 37 35 34 39 50 61 70 82 93 95 92 88 86 84 81 78 79 82 85 85 86 84 81 79 78 80 82 78 71 65 61 57 55 54 51 46 40 34 33 34 36 35 33 31 30 30 32 34
48 47 45 45 45 45 44 42 42 44 45 46 47 47 46 45 45 44 43 42 41 40 39 39 39 39 39 39 39 41 47 52 53 51 50 51 49 46 41 36 36 42 49 61 80 95 98 96 93 89 84 82 81 81 83 84 86 88 85 82 81 83 85 83 76 69 65 61 58 56 55 49 42 36 33 32 33 34 34 33 31 30 31 33 34
50 50 50 50 49 49 47 46 47 49 48 47 46 46 45 44 44 42 41 41 40 40 42 43 44 44 44 44 46 49 52 54 53 51 53 56 54 52 47 41 36 35 39 53 80 98 99 95 93 87 82 82 83 85 87 88 89 89 87 85 86 86 84 79 73 66 61 56 54 54 51 45 39 35 33 32 32 34 33 31 30 31 33 35 36
52 55 56 56 55 54 52 52 52 51 49 46 44 43 41 41 41 41 40 41 41 42 44 46 47 50 52 52 55 58 60 59 56 55 57 59 54 51 51 48 42 39 39 49 70 88 92 92 93 90 86 87 90 91 92 92 91 91 91 90 86 80 75 70 65 59 55 53 52 51 47 42 38 35 31 30 31 32 30 29 30 33 35 36 36
56 58 60 62 60 57 55 54 52 50 49 47 45 43 41 41 43 44 45 45 45 46 49 51 53 57 61 63 65 67 66 66 65 61 60 59 55 51 52 53 52 51 48 47 57 70 78 86 94 94 91 92 94 94 94 94 94 93 92 88 80 72 65 62 58 55 54 55 53 49 43 39 35 32 30 29 31 31 30 31 33 35 35 36 37
61 62 63 64 61 57 54 53 51 50 50 48 45 43 44 45 47 47 48 50 51 53 57 61 64 67 71 75 77 77 75 75 74 67 62 62 62 59 56 54 56 59 59 56 59 64 68 77 89 96 95 95 95 95 95 95 94 91 87 81 73 66 62 60 60 59 58 57 52 45 39 36 33 29 27 28 31 32 32 33 35 36 36 37 38
65 65 65 64 60 56 54 52 51 51 51 48 44 44 47 49 48 47 50 55 60 64 70 76 79 80 82 84 86 86 86 85 80 72 67 67 68 68 66 60 55 58 62 64 65 68 73 82 92 97 94 91 91 92 94 93 90 86 80 73 67 63 62 62 64 63 60 56 48 40 36 33 29 25 25 28 31 33 33 33 36 37 37 37 38
64 66 66 62 58 55 53 52 51 51 48 46 44 46 49 50 48 49 55 63 68 75 82 86 87 87 88 90 92 92 92 90 86 82 78 73 70 71 73 67 59 59 66 70 72 76 84 93 97 95 92 89 88 88 90 88 85 81 75 68 65 65 65 66 64 61 55 49 42 36 34 30 25 22 23 27 30 32 34 37 37 37 37 37 37
63 65 64 58 54 54 53 52 52 50 48 46 46 48 51 53 52 54 61 67 73 80 87 90 90 89 90 92 93 91 89 88 87 85 82 78 73 73 73 69 67 71 77 79 79 80 84 90 92 92 92 90 89 88 89 87 83 79 74 69 67 68 68 65 61 55 49 43 37 33 31 27 22 20 22 26 30 34 37 39 37 36 37 38 37
62 64 62 56 53 55 55 53 53 52 51 51 51 52 55 57 56 57 63 68 74 83 90 91 92 92 91 91 92 92 89 88 85 81 78 77 75 73 70 68 70 76 80 80 80 79 82 86 90 91 90 89 89 90 91 88 84 81 77 72 69 69 66 62 56 50 44 38 33 31 29 25 21 20 23 27 32 37 39 39 37 37 38 38 37
57 61 62 57 55 56 57 56 56 56 56 56 56 56 59 61 60 61 65 68 73 82 89 91 92 93 93 91 91 90 88 88 84 78 73 70 68 67 66 64 69 79 87 88 86 82 80 84 89 92 92 93 93 91 88 85 82 79 75 72 71 69 64 56 49 42 37 34 31 29 27 24 21 23 25 29 34 38 40 39 38 38 39 39 38
52 57 60 59 57 56 58 59 60 59 58 60 61 61 63 64 63 62 66 68 72 79 86 89 90 92 92 89 87 84 83 82 78 73 69 65 62 60 59 62 71 85 96 98 95 90 84 82 85 88 90 91 90 88 85 83 81 79 77 75 73 66 55 46 40 36 34 32 29 27 25 23 23 25 28 30 35 40 41 40 38 38 40 40 38
49 53 57 59 59 58 59 61 62 61 61 63 64 64 66 67 65 64 64 65 67 73 82 88 91 91 90 87 85 81 78 76 74 72 71 69 64 60 61 68 81 94 99 98 97 96 94 91 91 91 89 89 89 88 86 83 82 81 79 74 66 55 45 39 36 35 34 31 28 26 24 24 25 27 30 33 38 42 43 41 38 38 40 41 39
48 48 53 58 59 59 60 62 63 62 63 64 65 65 67 69 68 65 63 62 64 71 79 86 89 89 88 87 84 81 77 76 76 74 73 71 70 70 72 76 85 94 99 99 98 97 97 96 95 95 94 92 92 90 88 85 83 80 75 66 56 47 41 38 36 35 33 31 29 29 28 27 27 28 31 36 41 45 45 42 39 39 41 41 40
47 45 48 53 57 58 59 61 63 63 64 66 68 68 69 69 69 65 62 61 64 70 76 82 86 86 87 86 86 84 83 82 82 81 82 83 86 90 92 90 90 92 96 98 97 97 96 96 95 94 92 91 90 90 89 86 81 75 68 61 53 46 41 39 38 37 36 35 35 35 34 31 30 30 32 38 45 49 48 44 41 41 42 41 40
45 41 41 46 51 53 55 57 60 62 65 67 70 72 71 70 68 64 61 60 63 67 72 77 79 80 83 85 87 88 89 89 90 91 93 94 94 95 96 95 94 93 93 93 92 91 90 90 89 88 87 88 90 89 84 77 71 67 63 59 54 49 47 45 44 42 40 40 40 39 37 35 35 34 36 42 49 51 48 44 42 43 42 41 41
43 41 40 41 44 47 50 52 54 57 62 66 70 73 73 71 68 64 60 59 62 64 67 71 76 80 84 89 90 90 91 94 95 96 96 96 94 94 94 94 93 92 90 90 89 89 89 87 85 84 86 87 86 81 73 67 65 65 63 60 58 57 54 51 47 45 44 44 43 42 41 40 41 42 43 47 51 51 48 45 44 43 42 41 41